Weather History for Sleetmute, AK

Change the Weather History Date:

Sunday, November 25, 2012

  Actual Average Record
Temperature  
Mean Temperature -12 °F -  
Max Temperature -5 °F 11 °F 33 °F (2002)
Min Temperature -22 °F 0 °F -25 °F (2006)
Degree Days  
Heating Degree Days 78    
Moisture  
Dew Point -23 °F    
Average Humidity 71    
Maximum Humidity 100    
Minimum Humidity 35    
Precipitation  
Precipitation 0.00 in - - ()
Sea Level Pressure  
Sea Level Pressure 30.28 in    
Wind  
Wind Speed 0 mph (North)    
Max Wind Speed 0 mph    
Max Gust Speed -    
Visibility 10 miles    
Events      
Averages and records for this station are not official NWS values.
T = Trace of Precipitation, MM = Missing Value Source: NWS Daily Summary

Daily Weather History Graph

Daily Weather History Graph

Search for Another Location

Airport:

Trip Planner

Search our weather history database for the weather conditions in past years. The results will help you decide how hot, cold, wet, or windy it might be!

Date:

Astronomy

Nov. 25, 2012 Rise Set
Actual Time 10:06 AM AKST 4:24 PM AKST
Civil Twilight 9:09 AM AKST 5:22 PM AKST
Nautical Twilight 8:11 AM AKST 6:19 PM AKST
Astronomical Twilight 7:18 AM AKST 7:12 PM AKST
Moon 3:18 PM AKST (11/25) 6:55 AM AKST (11/25)
Length of Visible Light 8h 12m
Length of Day
6h 18m
Waxing Gibbous, 93% of the Moon is Illuminated
Nov 25
Waxing Gibbous
Nov 28
Full
Dec 6
Last Quarter
Dec 12
New
Dec 19
First Quarter

Hourly Weather History & Observations

Time (AKST) Temp. Dew Point Humidity Pressure Visibility Wind Dir Wind Speed Gust Speed Precip Events Conditions
12:16 AM -16.6 °F -23.8 °F 70% 30.17 in 10.0 mi Calm Calm - N/A   Clear
12:36 AM -18.4 °F -25.6 °F 70% 30.18 in 10.0 mi Calm Calm - N/A   Clear
12:56 AM -18.4 °F - N/A% 30.18 in 10.0 mi Calm Calm - N/A   Clear
1:16 AM -18.4 °F -22.0 °F 84% 30.19 in 10.0 mi Calm Calm - N/A   Clear
2:16 AM -18.4 °F -23.8 °F 76% 30.20 in 10.0 mi Calm Calm - N/A   Clear
2:36 AM -18.4 °F -27.4 °F 63% 30.20 in 10.0 mi Calm Calm - N/A   Clear
2:56 AM -18.4 °F - N/A% 30.21 in 10.0 mi Calm Calm - N/A   Clear
3:16 AM -18.4 °F -25.6 °F 70% 30.21 in 10.0 mi Calm Calm - N/A   Clear
3:36 AM -20.2 °F - N/A% 30.21 in 10.0 mi Calm Calm - N/A   Clear
3:56 AM -18.4 °F - N/A% 30.21 in 10.0 mi Calm Calm - N/A   Clear
4:16 AM -20.2 °F -27.4 °F 69% 30.21 in 10.0 mi Calm Calm - N/A   Clear
4:56 AM -20.2 °F - N/A% 30.23 in 10.0 mi Calm Calm - N/A   Clear
5:16 AM -20.2 °F -25.6 °F 76% 30.23 in 10.0 mi Calm Calm - N/A   Clear
5:36 AM -20.2 °F - N/A% 30.23 in 10.0 mi Calm Calm - N/A   Clear
5:56 AM -20.2 °F - N/A% 30.24 in 10.0 mi Calm Calm - N/A   Clear
6:16 AM -20.2 °F -27.4 °F 69% 30.24 in 10.0 mi Calm Calm - N/A   Clear
6:36 AM -20.2 °F - N/A% 30.24 in 10.0 mi Calm Calm - N/A   Clear
6:56 AM -20.2 °F - N/A% 30.24 in 10.0 mi Calm Calm - N/A   Clear
7:16 AM -20.2 °F -27.4 °F 69% 30.25 in 10.0 mi Calm Calm - N/A   Clear
7:36 AM -20.2 °F - N/A% 30.25 in 10.0 mi Calm Calm - N/A   Clear
7:56 AM -20.2 °F - N/A% 30.25 in 10.0 mi Calm Calm - N/A   Clear
8:16 AM -20.2 °F - N/A% 30.25 in 10.0 mi Calm Calm - N/A   Clear
8:36 AM -20.2 °F -25.6 °F 76% 30.26 in 10.0 mi Calm Calm - N/A   Clear
9:16 AM -20.2 °F -23.8 °F 83% 30.27 in 10.0 mi Calm Calm - N/A   Clear
9:56 AM -20.2 °F -25.6 °F 76% 30.27 in 10.0 mi Calm Calm - N/A   Clear
10:16 AM -20.2 °F - N/A% 30.27 in 10.0 mi Calm Calm - N/A   Clear
10:36 AM -18.4 °F -25.6 °F 70% 30.27 in 10.0 mi Calm Calm - N/A   Clear
10:56 AM -18.4 °F -23.8 °F 76% 30.28 in 8.0 mi Calm Calm - N/A   Clear
11:16 AM -18.4 °F - N/A% 30.28 in 10.0 mi Calm Calm - N/A   Clear
11:36 AM -16.6 °F -18.4 °F 92% 30.28 in 10.0 mi Calm Calm - N/A   Clear
11:56 AM -14.8 °F -25.6 °F 58% 30.29 in 8.0 mi Calm Calm - N/A   Clear
12:16 PM -14.8 °F -20.2 °F 77% 30.29 in 10.0 mi Calm Calm - N/A   Clear
12:36 PM -13.0 °F -20.2 °F 70% 30.29 in 9.0 mi Calm Calm - N/A   Clear
12:56 PM -11.2 °F -20.2 °F 64% 30.29 in 10.0 mi Calm Calm - N/A   Clear
1:16 PM -9.4 °F -11.2 °F 92% 30.29 in 10.0 mi Calm Calm - N/A   Clear
1:36 PM -9.4 °F -25.6 °F 45% 30.28 in 10.0 mi Calm Calm - N/A   Clear
1:56 PM -7.6 °F - N/A% 30.29 in 5.0 mi Calm Calm - N/A   Clear
2:16 PM -7.6 °F -27.4 °F 38% 30.28 in 10.0 mi Calm Calm - N/A   Clear
2:36 PM -5.8 °F -5.8 °F 100% 30.28 in 10.0 mi Calm Calm - N/A   Clear
2:56 PM -5.8 °F -23.8 °F 42% 30.29 in 10.0 mi Calm Calm - N/A   Clear
3:16 PM -5.8 °F -5.8 °F 100% 30.29 in 8.0 mi Calm Calm - N/A   Clear
3:36 PM -5.8 °F -27.4 °F 35% 30.29 in 10.0 mi Calm Calm - N/A   Clear
3:56 PM -7.6 °F -11.2 °F 84% 30.29 in 10.0 mi Calm Calm - N/A   Clear
4:16 PM -9.4 °F -23.8 °F 49% 30.29 in 10.0 mi Calm Calm - N/A   Clear
4:36 PM -11.2 °F -16.6 °F 77% 30.29 in 10.0 mi Calm Calm - N/A   Clear
4:56 PM -11.2 °F -23.8 °F 54% 30.30 in 10.0 mi Calm Calm - N/A   Clear
5:16 PM -13.0 °F -22.0 °F 64% 30.31 in 10.0 mi Calm Calm - N/A   Clear
5:36 PM -14.8 °F -20.2 °F 77% 30.31 in 8.0 mi Calm Calm - N/A   Clear
5:56 PM -14.8 °F -27.4 °F 53% 30.32 in 10.0 mi Calm Calm - N/A   Clear
6:16 PM -14.8 °F -16.6 °F 92% 30.32 in 10.0 mi Calm Calm - N/A   Clear
6:36 PM -14.8 °F -27.4 °F 53% 30.32 in 10.0 mi Calm Calm - N/A   Clear
6:56 PM -16.6 °F - N/A% 30.32 in 10.0 mi Calm Calm - N/A   Clear
7:36 PM -16.6 °F - N/A% 30.33 in 10.0 mi Calm Calm - N/A   Clear
7:56 PM -18.4 °F -27.4 °F 63% 30.33 in 10.0 mi Calm Calm - N/A   Clear
8:16 PM -18.4 °F -23.8 °F 76% 30.33 in 10.0 mi Calm Calm - N/A   Clear
8:36 PM -18.4 °F - N/A% 30.34 in 10.0 mi Calm Calm - N/A   Clear
9:16 PM -18.4 °F -25.6 °F 70% 30.35 in 10.0 mi Calm Calm - N/A   Clear
9:36 PM -20.2 °F - N/A% 30.36 in 10.0 mi Calm Calm - N/A   Clear
10:16 PM -20.2 °F -27.4 °F 69% 30.37 in 10.0 mi Calm Calm - N/A   Clear
10:36 PM -20.2 °F - N/A% 30.37 in 10.0 mi Calm Calm - N/A   Clear
10:56 PM -20.2 °F -20.2 °F 100% 30.37 in 8.0 mi Calm Calm - N/A   Clear
11:16 PM -20.2 °F -25.6 °F 76% 30.37 in 10.0 mi Calm Calm - N/A   Clear
11:36 PM -22.0 °F - N/A% 30.38 in 10.0 mi Calm Calm - N/A   Clear